Wind_Speed
16 17 17 18 21 24 26 27 29 31 32 31 27 26 26 26 25 24 24 23 22 21 20 19 18 17 18 19 18 17 17 16 16 16 16 15 14 13 12 12 13 15 18 19 18 18 20 20 23 25 26 29 32 33 34 34 34 35 34 34 34 31 31 30 30 26 15 14 20 20 22 27 29 28 27 26 24 21 18 16 15 13 11 9 7 5 4 4
16 17 17 18 21 23 25 26 28 31 32 31 27 26 25 25 25 25 24 23 22 21 20 19 17 18 19 20 19 18 17 16 16 15 14 13 13 11 11 11 11 13 15 17 17 17 18 21 24 24 27 30 32 33 33 33 34 36 34 34 35 32 29 26 26 21 13 17 22 24 26 27 28 26 26 26 25 22 20 18 15 12 10 7 5 4 4 4
15 17 18 18 20 23 25 26 27 30 32 30 27 25 25 24 25 25 24 22 22 22 21 19 18 19 20 20 19 18 18 16 13 12 12 11 9 9 10 11 10 11 13 15 16 18 19 22 24 24 27 29 32 34 33 33 34 36 33 35 34 30 27 23 25 21 13 22 30 31 32 31 29 26 24 24 23 21 20 18 12 10 9 7 5 4 4 3
15 16 18 18 20 22 24 26 27 29 31 29 26 25 25 24 24 24 24 22 21 22 21 20 20 20 20 20 19 19 19 14 12 12 12 9 7 8 10 11 9 8 11 14 16 19 22 24 24 25 28 29 31 33 33 34 34 34 34 35 32 29 27 22 26 23 13 21 31 34 34 32 29 27 25 23 22 20 18 16 11 10 9 7 6 6 4 3
14 16 17 18 20 22 24 25 26 29 30 28 25 25 24 23 22 23 23 21 20 21 21 21 20 20 20 20 19 19 19 15 13 13 10 7 6 6 9 10 7 8 12 15 17 20 23 23 24 27 28 28 30 33 33 34 32 31 33 31 28 29 27 23 28 25 14 15 26 33 31 27 27 26 25 23 20 14 12 12 11 11 9 7 7 6 5 4
14 15 17 18 20 21 23 24 25 28 29 27 24 24 24 22 20 21 22 20 19 20 20 20 19 19 19 19 19 18 18 17 15 13 9 6 6 5 7 6 5 9 13 15 17 20 21 22 26 28 28 28 31 32 31 33 30 29 29 25 25 26 26 24 26 23 15 11 20 29 28 26 26 25 25 23 18 12 10 11 11 10 8 7 7 6 4 4
13 15 16 17 19 21 22 23 25 27 28 26 23 23 23 22 20 19 20 18 17 18 18 18 17 17 17 17 17 17 16 16 16 14 11 9 7 5 3 3 5 8 12 14 15 18 20 23 26 27 28 28 29 29 30 33 28 25 23 21 23 22 24 25 20 17 15 11 16 24 27 28 27 25 24 22 19 15 13 12 10 9 9 7 6 5 4 4
12 14 15 17 19 20 22 23 24 26 27 26 23 22 23 22 19 18 19 17 17 17 16 16 15 15 16 16 16 17 18 18 18 16 13 10 8 5 4 1 4 8 10 12 14 17 20 24 26 27 27 28 29 28 31 32 25 22 20 19 21 22 24 21 15 12 11 11 15 21 28 30 26 24 23 21 20 17 14 12 10 9 8 7 5 4 3 3
12 13 14 16 18 20 21 22 23 25 26 25 23 22 22 21 19 18 18 17 16 16 16 14 14 15 16 16 16 18 21 19 17 17 15 11 9 7 6 3 5 8 10 13 15 18 21 25 28 26 24 28 29 27 29 31 23 19 17 18 22 26 24 16 10 10 11 15 18 22 29 30 27 23 21 21 19 16 14 11 10 9 8 7 5 4 4 3
11 12 13 15 17 19 20 21 22 24 25 24 23 22 21 20 18 18 18 18 17 16 15 13 13 15 15 16 16 18 23 21 15 15 15 11 10 11 11 8 7 8 11 15 16 20 22 25 27 24 23 28 27 24 27 28 21 15 16 20 25 28 23 13 10 12 16 21 23 26 31 31 28 24 20 19 17 15 13 12 11 10 8 7 5 4 4 3
10 11 12 14 16 18 19 20 21 23 23 22 22 21 20 19 17 17 18 18 17 16 14 12 12 15 15 15 15 17 23 24 16 12 14 11 9 12 12 8 8 8 11 16 18 23 23 23 26 24 25 28 26 24 27 26 18 15 18 23 27 25 18 13 13 15 20 25 27 31 33 30 27 23 18 14 12 13 12 11 11 10 9 8 6 4 4 3
10 10 11 12 15 17 19 19 20 21 21 19 20 21 20 19 17 16 17 18 18 15 13 11 11 13 15 15 15 17 22 25 24 22 25 23 18 15 12 9 10 8 13 18 24 28 25 24 25 23 22 25 26 24 25 24 19 20 22 25 28 22 16 16 18 19 22 25 27 30 27 24 23 21 16 11 10 12 12 12 11 10 9 7 5 4 4 3
9 10 10 11 14 16 18 18 18 19 19 17 18 20 20 19 17 16 16 16 17 15 12 10 10 12 14 15 15 18 22 25 28 29 29 27 21 17 16 15 14 13 14 18 27 29 23 22 22 20 17 20 25 23 24 26 22 23 22 22 28 22 16 20 23 24 24 22 21 22 19 16 17 17 15 11 10 11 11 11 10 8 7 6 5 4 4 4
9 9 9 10 12 15 17 18 17 18 18 16 15 18 20 19 18 18 17 16 15 14 12 9 8 10 11 14 15 17 22 24 25 26 25 23 19 17 18 17 15 16 16 15 22 26 18 16 16 18 15 18 25 23 25 27 25 27 22 19 24 22 19 22 22 21 19 17 16 15 15 15 16 16 14 11 11 11 9 8 7 7 6 5 5 4 4 5
8 8 9 9 11 14 16 17 17 16 16 15 14 14 17 19 19 18 18 18 15 13 12 9 7 8 9 11 14 17 20 21 21 21 21 20 18 18 19 18 16 17 16 14 18 20 15 14 14 15 13 18 25 21 22 23 23 27 22 18 19 18 18 20 17 15 13 15 15 13 13 15 16 15 12 11 11 10 8 7 7 6 6 5 4 4 5 6
8 8 8 9 10 12 15 16 16 15 14 14 13 13 14 16 17 18 18 18 17 14 11 8 7 8 8 10 12 14 16 16 16 17 17 17 17 17 19 18 16 17 18 15 15 15 16 18 15 12 10 16 21 18 19 19 19 20 16 17 19 16 16 16 13 13 13 15 15 10 9 10 10 10 10 10 9 8 7 7 7 6 5 4 4 5 6 7
8 7 7 8 9 11 14 15 16 15 14 14 13 12 13 14 15 16 16 17 17 16 14 11 8 6 7 11 9 9 10 10 11 14 16 16 16 14 15 17 15 16 17 15 13 12 15 19 15 11 9 10 14 15 14 16 18 18 13 15 18 14 14 15 13 12 14 14 12 8 7 7 4 6 9 8 7 6 4 5 5 5 4 4 5 5 6 6
7 7 7 7 8 10 12 14 15 15 14 14 13 11 11 12 13 13 14 15 14 14 14 14 12 7 8 11 9 7 6 5 8 11 12 13 14 13 11 13 12 13 14 13 14 10 10 14 15 13 10 9 6 8 9 15 17 18 14 12 12 12 13 18 16 12 13 12 10 8 7 7 4 5 7 6 5 4 3 4 4 5 4 5 5 5 6 5
7 7 7 7 7 8 11 13 14 14 14 14 13 12 11 11 11 11 12 13 13 12 12 12 13 11 12 14 11 8 5 4 6 8 10 10 11 11 10 9 9 11 12 10 11 9 6 12 16 16 13 10 7 2 8 17 15 16 15 11 10 11 11 15 13 10 10 8 8 7 6 6 5 6 6 4 4 4 4 4 4 4 4 4 4 5 5 4
7 7 7 7 7 7 9 12 13 14 15 16 15 13 12 12 11 11 11 9 10 11 11 11 11 11 13 14 13 11 9 8 8 8 8 8 8 8 6 7 8 11 10 8 10 9 8 14 16 17 16 14 11 3 6 16 16 16 17 12 10 8 8 10 8 5 5 4 6 6 6 7 8 9 7 5 5 5 4 3 2 2 3 4 5 5 5 5
7 7 6 7 6 6 8 10 11 13 15 16 17 16 15 15 15 14 12 8 8 9 9 10 10 10 12 13 13 14 13 13 13 11 9 7 6 6 5 7 9 9 8 8 9 10 9 14 17 19 18 16 13 5 5 14 17 17 16 14 11 8 7 8 5 3 4 4 3 6 9 11 12 11 10 9 8 7 5 3 3 3 3 4 5 6 6 7
7 7 6 6 6 6 7 9 10 11 14 16 17 17 17 17 17 16 14 9 8 8 7 8 9 9 11 11 12 15 15 15 14 13 11 9 6 7 6 6 6 8 7 6 7 5 8 13 15 17 18 17 15 11 8 11 11 13 12 10 10 9 7 7 5 2 3 3 3 7 11 13 14 14 13 12 9 7 7 6 6 5 4 4 4 4 6 8
7 7 6 6 7 6 6 8 9 10 13 15 16 17 16 17 16 16 14 11 9 9 7 7 7 8 10 9 9 11 13 15 15 13 12 10 7 7 6 5 6 8 8 4 5 6 4 10 10 11 14 16 16 12 8 11 10 7 8 6 5 4 4 4 3 1 3 4 5 8 10 12 13 14 15 13 11 9 10 10 9 8 6 5 5 4 6 8
8 6 6 7 7 6 5 6 8 9 12 14 15 16 15 15 15 14 12 9 10 12 11 8 6 7 9 9 8 8 9 10 11 11 11 9 6 6 5 6 7 6 6 6 4 6 3 6 5 5 9 14 14 11 9 7 9 5 6 5 2 2 3 1 2 4 4 6 8 8 9 10 12 14 15 14 13 13 13 12 12 11 8 8 9 7 7 7
8 6 6 6 7 6 5 5 7 8 10 13 14 14 13 13 13 11 8 7 8 10 12 10 7 7 8 8 7 6 6 7 6 6 8 6 5 5 5 6 5 3 3 5 4 5 5 4 3 4 5 10 11 9 10 7 7 7 6 3 3 4 3 2 3 5 4 4 6 6 5 4 5 8 10 12 15 15 13 14 14 12 11 11 11 10 7 6
8 6 6 6 7 6 5 5 5 7 9 12 14 14 12 12 11 8 5 5 6 7 9 10 9 9 9 10 9 7 5 6 5 5 5 4 2 3 4 3 2 3 3 3 4 4 4 4 2 1 2 5 6 6 6 4 4 4 3 2 4 4 4 2 4 3 3 1 2 4 3 3 6 6 5 8 12 13 14 15 15 14 14 14 12 11 8 6
8 6 5 6 7 6 5 4 4 6 8 10 13 13 12 11 10 7 4 3 4 7 8 9 9 10 10 10 10 9 8 7 6 4 2 1 2 1 1 2 2 3 3 5 5 3 4 6 4 3 4 4 2 3 2 1 2 3 3 1 0 3 6 1 3 2 2 1 1 2 4 6 9 7 5 7 8 10 13 14 15 15 15 15 13 11 9 7
8 7 5 5 6 6 5 5 5 5 7 8 11 13 11 11 9 6 3 1 3 7 8 8 9 10 10 9 8 8 7 8 9 5 1 3 3 4 2 0 2 4 3 5 4 4 6 8 7 5 6 8 6 1 2 3 4 6 4 2 3 1 4 3 2 2 2 0 1 3 3 4 6 5 3 6 8 9 10 10 11 13 13 14 13 11 9 7
9 7 6 5 6 6 6 6 5 5 6 8 10 12 11 10 9 5 2 1 4 8 7 7 8 9 9 10 9 7 4 6 11 11 8 8 7 5 5 6 8 9 6 4 5 5 7 8 6 4 6 10 8 5 7 7 7 8 5 4 4 0 1 2 3 2 3 2 2 3 4 4 3 7 8 6 7 7 7 6 6 9 12 13 12 10 9 7
9 7 6 5 5 6 6 7 6 5 6 7 9 12 11 9 9 5 1 2 7 8 7 7 8 8 9 10 9 7 5 6 10 12 11 12 12 11 12 13 14 15 12 10 10 8 9 10 11 10 10 12 11 8 8 7 6 8 7 7 6 2 1 1 3 1 3 1 3 1 7 5 2 7 11 12 11 9 6 3 2 5 9 10 9 9 7 6
9 8 7 5 5 5 6 7 7 6 6 6 8 12 11 7 8 5 1 2 7 8 7 7 8 9 9 9 7 7 8 8 10 10 10 11 12 11 9 9 11 11 11 10 10 8 11 12 13 14 12 12 11 8 6 4 4 6 7 8 7 2 1 1 2 2 2 1 4 1 7 7 2 5 12 14 13 12 6 3 1 3 5 7 6 6 6 5
9 8 7 4 4 5 6 7 7 7 6 6 7 11 10 6 5 5 4 4 6 8 7 5 7 8 9 8 7 5 6 8 11 11 10 10 10 11 9 9 9 8 8 7 6 4 5 5 6 6 6 7 7 6 4 2 1 1 1 4 4 2 2 2 2 1 1 2 4 3 9 6 3 5 13 15 14 14 8 2 4 4 6 9 7 6 5 4
8 8 6 4 5 5 5 6 7 8 7 6 6 9 9 4 3 5 7 7 7 8 7 4 5 7 6 7 7 5 4 7 10 10 10 10 10 10 9 10 10 7 8 9 8 5 4 3 2 3 3 4 8 6 3 4 3 3 3 3 3 2 2 1 1 1 1 4 5 8 8 1 2 6 12 15 15 14 9 2 1 3 9 12 10 7 5 3
8 7 6 4 5 4 4 6 8 8 7 6 5 7 6 3 3 5 8 10 9 8 6 4 5 5 4 5 6 6 5 6 9 9 9 9 10 10 8 9 10 8 8 9 9 7 6 5 2 3 3 4 6 6 3 5 4 3 4 3 4 5 2 1 1 1 2 4 7 8 4 3 5 7 10 13 15 14 11 7 3 4 9 13 13 10 7 6
7 6 6 4 4 3 3 6 8 8 8 6 4 5 5 4 5 5 8 11 11 9 6 4 5 4 3 4 5 6 6 5 7 7 7 7 10 12 10 10 9 7 7 6 6 9 9 8 7 4 3 2 2 5 6 5 4 2 5 6 7 6 2 1 2 4 4 4 4 2 2 3 7 11 11 10 13 13 11 11 9 8 8 11 14 13 10 8
6 5 5 3 3 3 4 6 8 9 7 5 4 3 4 4 5 6 7 11 11 10 7 3 2 3 4 4 4 4 4 5 6 6 5 6 10 13 11 10 8 6 6 6 6 6 7 8 6 6 5 4 4 2 3 5 3 3 5 4 4 4 2 1 3 4 4 4 2 2 5 6 7 10 11 9 11 12 11 11 11 11 11 12 13 13 11 10
5 4 3 2 3 4 5 6 8 8 7 5 3 2 2 3 5 6 7 9 10 10 8 3 1 3 5 4 3 2 2 4 6 6 5 5 8 12 10 9 9 10 11 10 8 7 8 9 6 3 5 6 4 2 4 4 2 2 1 3 4 3 4 3 1 2 3 3 1 2 8 11 8 8 10 11 12 13 12 11 10 11 11 12 11 10 10 9
4 3 3 3 4 4 5 6 7 8 7 6 4 2 2 3 5 6 7 7 8 9 8 3 2 4 5 4 4 3 3 3 3 3 5 4 6 12 11 8 6 6 6 6 7 8 10 9 7 5 4 4 3 4 7 6 4 5 5 4 2 3 2 2 1 2 2 1 1 2 6 10 13 12 11 12 14 15 14 13 12 12 13 13 11 9 7 7
4 3 3 3 4 4 4 6 7 7 7 6 4 3 2 3 4 5 5 6 7 8 6 3 2 3 4 5 5 5 3 3 2 2 3 3 4 10 12 9 6 4 4 4 4 4 5 5 4 5 3 3 5 5 5 5 7 9 10 7 5 4 2 2 2 3 3 3 1 2 2 5 12 13 11 12 14 15 14 14 14 14 14 13 11 9 7 6
3 3 3 3 3 4 5 6 6 6 7 6 5 3 3 2 2 2 4 5 5 6 6 3 1 3 4 5 5 5 3 2 2 3 3 2 2 7 11 11 8 7 7 6 4 3 2 2 3 4 3 4 7 5 2 2 5 7 8 8 6 4 1 5 4 4 3 3 3 2 1 4 10 11 9 11 13 13 13 13 14 13 13 12 10 9 7 6
4 3 3 4 4 6 7 7 7 7 6 6 6 4 3 2 0 0 2 3 3 4 5 3 1 2 3 3 3 3 2 1 1 3 3 2 2 6 9 9 8 8 8 7 6 4 3 2 4 6 6 5 4 3 1 0 2 3 4 5 5 5 2 3 3 4 5 3 3 4 2 3 9 9 8 10 11 12 12 11 11 12 11 10 10 8 6 6
5 4 4 4 4 6 7 7 7 7 7 7 7 5 3 3 2 2 1 2 2 2 3 3 1 1 0 1 1 1 0 2 2 1 2 2 2 5 6 7 7 6 6 6 5 4 4 3 3 6 6 3 2 1 5 5 4 2 2 2 2 2 1 1 2 3 6 6 5 6 4 2 7 7 7 9 10 10 11 9 9 10 9 9 8 7 6 5
6 5 5 5 3 4 6 6 7 7 7 7 7 5 4 4 3 3 4 3 3 3 3 3 3 2 1 1 1 1 2 3 3 2 2 0 1 2 3 4 5 5 3 3 3 2 2 3 4 6 5 2 3 6 7 5 4 2 1 2 4 3 2 3 2 4 6 6 5 4 2 2 5 6 6 7 7 7 8 8 8 8 8 8 7 6 6 6
7 7 7 6 4 4 6 6 7 6 6 6 6 5 3 4 3 3 4 4 4 4 4 5 4 2 1 1 2 3 4 3 3 3 3 3 2 1 2 1 2 2 1 2 3 1 0 1 5 8 6 4 4 5 4 2 2 1 1 1 2 2 2 3 2 4 4 4 4 4 2 3 5 5 5 5 5 5 6 6 7 7 7 6 6 6 6 5
7 8 8 7 6 6 6 7 7 6 5 6 6 5 3 3 2 1 3 4 5 5 6 6 4 3 3 3 3 4 5 4 4 4 4 5 5 4 2 2 2 1 1 1 2 1 1 0 3 5 4 3 2 2 2 3 3 3 2 1 1 2 0 2 1 3 3 4 5 6 5 4 4 3 2 2 3 4 4 5 5 6 5 5 5 6 6 4
7 8 9 8 8 8 8 8 8 7 5 5 6 5 4 3 2 2 3 4 5 5 5 5 4 4 4 5 5 5 6 5 5 5 5 6 7 7 5 4 3 1 0 1 2 1 0 2 2 4 6 7 6 6 6 5 4 4 3 1 1 2 1 2 2 3 3 5 6 6 6 4 3 2 2 3 3 2 2 3 4 4 4 6 7 9 8 5
7 9 9 9 8 9 10 10 8 7 5 5 5 5 4 4 3 3 4 4 5 5 5 5 4 5 6 7 7 7 6 6 6 6 6 7 8 8 7 6 4 1 0 0 0 1 1 3 4 4 6 7 7 7 7 5 5 4 3 2 1 1 1 2 3 3 6 5 3 4 5 4 4 4 3 4 2 1 1 2 3 5 6 7 9 10 10 8
7 8 8 9 8 8 8 8 7 6 5 5 4 4 5 5 4 4 5 5 6 7 6 5 5 6 7 7 7 6 6 6 5 5 6 7 8 8 8 8 7 5 2 1 0 1 3 5 5 5 5 5 6 7 5 4 5 4 3 3 2 2 2 3 3 6 7 5 4 6 5 4 5 5 5 4 3 2 2 2 4 6 7 8 9 10 9 9
8 8 9 9 10 8 8 7 5 4 4 5 5 5 6 6 5 5 5 6 7 7 6 6 7 9 8 6 5 5 6 5 4 3 4 5 6 7 8 8 8 8 7 3 0 1 3 6 7 5 4 5 5 7 6 5 5 5 4 4 3 2 3 3 5 8 7 5 7 9 6 6 6 4 4 4 3 2 1 2 4 5 7 8 9 8 8 9
7 9 10 11 11 11 10 8 6 5 5 6 6 6 6 7 6 6 6 6 7 7 7 8 9 8 6 4 4 5 7 7 6 5 4 3 3 4 6 7 7 8 8 5 1 2 4 6 7 6 5 6 6 7 7 6 6 5 5 5 4 3 4 5 6 8 7 7 10 10 7 7 6 4 3 2 1 0 2 3 5 7 8 8 7 7 7 8
8 8 9 11 13 13 12 11 9 9 8 8 8 8 8 8 8 8 8 8 8 8 8 9 8 5 4 5 6 7 8 9 8 7 6 5 5 4 4 6 5 5 6 5 3 3 4 6 8 7 6 8 8 7 8 7 7 6 6 7 5 4 4 5 6 7 7 9 11 9 7 6 5 4 3 2 2 2 4 6 7 8 7 6 5 6 6 7
8 8 8 10 12 13 13 12 12 11 10 8 8 8 8 9 9 9 9 8 8 8 8 8 7 6 7 8 8 7 7 8 8 8 7 6 6 6 5 4 4 3 5 5 3 2 3 6 9 7 7 10 11 9 10 9 5 3 5 6 6 4 4 4 4 5 5 7 8 7 6 5 5 4 4 3 4 4 6 7 7 8 7 6 6 6 7 7
Wind_Direction
350 352 351 354 356 355 353 354 356 356 355 355 356 356 356 356 358 360 359 1 359 355 351 346 342 341 338 335 330 322 317 311 305 298 293 292 291 291 286 279 269 261 255 246 239 230 222 207 196 197 196 194 193 192 192 191 190 191 193 193 194 199 201 203 207 203 202 209 206 197 186 188 191 189 190 195 203 211 220 228 236 243 242 236 234 233 227 231
344 349 349 350 354 353 352 352 353 354 353 354 355 355 354 354 357 357 358 1 1 359 354 348 345 344 342 341 336 327 321 318 311 300 298 298 289 289 289 285 276 265 255 242 230 222 213 201 196 197 196 192 191 191 191 189 189 191 192 193 195 195 195 199 202 192 190 204 197 187 185 188 194 193 191 197 205 213 220 224 231 240 236 225 228 239 244 248
338 345 348 349 353 353 351 351 352 353 352 353 355 355 353 352 355 356 358 1 2 2 359 355 354 352 348 345 340 330 327 328 318 310 317 315 302 300 295 288 281 266 250 231 220 211 200 195 195 195 195 191 189 190 189 187 187 191 192 194 196 190 189 193 190 184 183 191 185 181 184 187 193 197 198 204 212 217 224 226 232 240 235 229 239 258 260 258
333 340 347 349 353 353 350 352 352 352 352 352 355 356 354 352 354 357 359 2 4 4 3 2 359 355 353 349 344 334 332 333 324 321 325 320 312 309 296 290 280 257 236 216 209 201 192 192 191 192 192 189 189 190 188 185 184 189 192 195 195 186 185 186 183 184 183 185 186 185 187 187 190 199 205 215 220 221 226 228 234 240 234 237 253 267 272 266
328 335 344 349 352 353 350 352 353 352 352 353 355 356 355 354 355 358 0 3 5 5 5 5 360 358 358 354 350 341 339 344 341 339 337 329 322 305 290 288 269 230 212 200 200 195 190 189 188 187 188 187 189 188 187 185 183 188 194 194 191 188 188 182 180 188 191 185 191 192 193 193 194 202 210 218 224 226 229 227 234 239 234 244 262 275 274 260
323 331 340 347 351 352 351 353 354 353 354 354 357 358 357 357 359 1 3 5 6 5 6 6 1 1 3 358 353 349 351 357 356 355 355 351 351 329 291 271 229 208 199 196 197 192 188 188 186 183 183 186 188 186 183 182 183 188 193 191 188 193 194 184 180 193 206 196 195 193 192 200 204 206 208 211 215 217 216 219 230 235 238 252 264 269 259 242
317 327 337 344 350 351 351 354 355 355 356 356 358 360 360 0 2 5 8 9 8 9 10 10 6 4 7 2 357 358 5 12 9 8 11 16 22 10 322 237 205 199 196 194 194 190 185 182 181 179 180 182 182 181 177 178 184 189 187 187 192 196 192 189 193 206 213 204 198 193 194 205 210 209 208 208 212 214 218 224 230 234 243 252 253 246 231 227
311 321 332 341 348 350 352 355 357 358 357 358 0 1 2 2 5 10 15 15 12 17 17 15 13 10 10 8 6 11 19 22 19 17 16 19 24 33 52 133 199 188 188 187 187 186 180 175 174 175 177 176 171 170 174 178 182 182 182 189 194 189 181 189 207 210 205 202 202 200 201 207 210 211 210 211 215 220 226 229 231 238 245 240 229 223 221 231
305 316 328 339 346 349 352 355 358 359 359 1 3 4 3 3 7 16 22 22 21 25 25 21 17 16 16 15 19 26 26 22 22 24 25 33 42 55 74 92 164 172 178 177 176 175 174 172 166 163 169 169 161 161 173 179 175 175 188 193 186 179 179 192 203 188 179 187 196 199 201 202 203 206 209 213 218 222 228 229 231 237 236 227 222 222 224 233
301 311 324 336 344 349 352 355 359 1 1 4 7 8 6 6 12 20 25 28 31 33 32 27 22 22 21 23 31 35 34 31 32 38 39 49 59 71 81 90 130 157 164 164 169 167 168 168 155 150 160 161 156 156 169 175 171 173 191 190 181 177 182 198 197 182 175 178 186 195 199 199 199 199 199 208 219 226 229 229 231 230 227 227 229 229 227 231
298 306 320 332 341 348 351 355 359 2 4 8 13 13 9 11 16 23 26 29 36 38 38 33 26 28 25 31 40 38 39 38 37 43 48 67 90 86 81 93 127 150 162 162 160 154 152 153 149 149 155 157 156 158 164 170 176 182 184 185 181 178 186 199 195 190 183 179 186 193 194 191 191 192 190 195 215 227 226 224 228 226 225 228 229 232 233 235
298 302 316 328 338 346 350 354 359 2 5 11 19 19 15 15 19 24 26 29 38 40 42 38 33 39 34 36 39 35 37 31 24 28 44 69 92 90 84 98 105 126 165 162 148 139 134 140 149 150 151 158 159 158 164 173 184 183 177 179 179 182 198 195 189 198 194 182 187 191 182 176 181 190 196 200 216 227 222 221 227 227 228 227 225 230 232 240
300 299 311 324 335 344 349 354 359 2 6 11 21 24 22 22 23 27 27 29 37 40 45 45 45 50 40 38 40 39 37 27 22 27 40 62 74 71 81 94 88 99 131 139 140 138 129 134 149 151 153 168 165 160 168 174 178 179 175 175 179 184 190 182 183 197 198 186 187 186 172 171 183 191 196 202 215 223 223 223 228 230 231 226 223 227 232 242
303 296 307 320 331 342 348 353 358 2 6 7 16 24 27 29 29 30 30 30 37 42 46 51 56 56 43 39 40 35 34 31 29 28 34 52 64 71 84 98 99 105 112 116 139 146 126 121 149 157 157 175 173 165 168 168 166 176 177 166 175 177 166 173 181 188 189 185 188 182 177 186 188 188 192 197 209 217 219 223 228 229 229 225 221 226 236 244
306 295 302 315 327 338 346 352 357 1 5 4 8 19 26 31 33 32 32 30 34 42 49 55 57 49 36 32 30 22 21 27 33 30 29 43 59 74 88 104 112 116 121 121 138 144 124 122 156 170 165 174 180 175 173 168 151 165 172 148 159 164 162 180 180 170 172 175 178 172 178 191 188 192 201 206 211 214 217 220 222 222 222 224 224 231 237 243
307 296 297 309 322 334 344 352 355 358 3 2 3 12 20 27 31 31 31 32 34 40 48 52 48 42 30 24 22 18 15 19 29 34 34 39 50 64 81 100 115 123 125 125 132 132 133 144 157 173 171 167 181 186 176 164 135 148 164 147 151 151 158 182 175 167 171 167 174 171 162 175 188 204 207 206 207 209 217 215 215 217 219 228 232 237 240 242
308 296 292 302 317 330 341 351 354 355 359 357 355 2 8 17 23 25 28 31 33 38 44 39 35 38 24 19 16 15 18 21 34 42 40 42 48 55 71 86 108 130 125 120 129 131 142 154 152 151 149 137 170 191 166 140 123 129 138 143 159 160 147 148 144 166 178 170 182 185 150 139 171 216 208 200 196 196 201 194 198 202 210 233 241 246 246 244
308 297 289 295 310 324 337 349 354 354 357 356 351 352 358 5 11 13 20 29 30 33 41 37 32 33 18 15 13 14 19 23 38 46 40 38 46 51 62 73 94 134 135 120 129 143 138 140 137 128 116 90 135 197 143 116 119 122 117 122 163 190 165 141 131 140 162 173 190 191 164 145 153 201 199 197 196 191 182 177 187 194 214 242 256 261 255 245
306 297 287 287 301 318 332 346 352 353 356 355 352 349 351 358 2 2 8 21 26 27 34 33 32 36 33 30 29 33 42 38 38 42 35 26 37 55 64 69 86 123 137 126 135 157 118 118 129 119 113 100 97 143 96 102 115 119 111 112 154 187 173 150 140 139 154 176 195 196 173 164 197 213 203 206 199 186 189 196 205 214 241 264 277 277 260 241
306 296 287 281 291 310 327 342 350 353 356 355 354 352 353 356 359 5 5 9 21 28 26 23 26 32 37 40 40 48 58 57 51 45 40 30 37 56 66 86 103 112 128 135 131 140 126 121 117 106 119 119 104 120 93 100 110 113 113 119 146 171 158 145 140 151 184 204 205 215 205 202 228 230 224 236 225 199 197 221 249 257 280 286 283 278 259 230
307 295 287 277 283 298 318 338 348 354 357 355 355 357 359 357 354 1 8 10 19 27 27 19 18 25 32 37 41 50 55 54 53 48 49 51 57 79 95 109 119 114 131 153 125 105 103 109 95 90 112 113 100 123 131 113 108 106 115 115 118 130 133 143 147 162 213 237 236 240 234 231 241 237 229 234 229 215 214 241 264 265 275 272 267 263 247 227
308 293 289 276 275 288 308 332 344 352 357 355 355 357 360 356 351 358 7 15 24 24 25 16 9 17 27 35 47 54 53 53 50 44 50 59 74 98 100 107 128 122 125 159 158 120 72 84 89 93 107 103 97 105 130 148 126 95 100 98 99 108 110 132 151 166 226 250 261 245 239 238 243 244 240 234 224 216 223 237 248 248 249 253 253 253 250 243
310 292 287 277 270 277 297 323 338 350 356 356 356 356 356 354 352 359 6 16 31 29 23 10 5 19 27 37 54 53 51 51 48 47 54 62 86 101 92 109 136 131 112 90 185 192 62 66 84 96 106 102 98 97 117 175 175 99 84 87 91 89 77 114 148 203 248 263 265 253 250 246 243 246 247 240 231 224 227 233 238 241 243 237 223 229 245 248
312 292 282 278 268 268 285 312 330 345 353 356 358 356 355 356 352 354 4 15 32 36 35 23 5 16 29 39 49 46 48 48 47 55 55 59 103 109 88 117 133 141 122 84 126 175 101 71 70 76 107 103 94 83 80 146 172 127 93 99 78 331 335 335 244 246 251 262 266 269 274 264 249 247 248 244 240 236 235 239 243 245 247 244 242 246 245 237
314 295 278 274 267 262 272 296 321 338 348 354 359 356 355 357 354 351 1 14 24 34 37 33 24 26 29 29 35 43 51 48 41 44 43 52 106 103 83 109 123 135 138 106 116 145 131 120 70 25 74 92 96 92 78 99 130 120 112 86 6 328 320 279 231 235 235 251 267 272 278 271 254 255 253 245 243 245 246 249 253 253 253 253 255 259 255 245
316 299 276 270 266 259 259 278 311 330 344 353 355 355 356 358 355 350 355 9 18 31 35 28 30 40 32 24 32 39 37 47 34 6 24 49 72 95 86 76 93 119 151 153 143 146 151 150 124 40 58 89 95 84 78 98 106 120 147 46 4 353 354 240 209 209 192 187 289 263 233 260 286 285 271 252 247 247 249 253 256 256 257 258 259 260 260 258
317 304 277 264 263 254 248 261 294 320 339 349 349 353 358 357 356 351 346 347 7 26 33 24 22 27 21 18 30 34 28 38 30 346 338 10 326 200 125 29 76 125 175 189 170 170 191 190 183 189 201 187 145 37 46 181 183 160 156 100 100 358 15 50 186 171 179 186 327 265 234 264 288 292 271 265 264 255 254 259 261 259 258 258 259 263 260 256
318 307 280 256 258 251 236 247 273 303 327 338 345 352 357 357 358 358 1 7 9 15 23 27 23 15 6 4 15 25 26 32 34 26 319 318 302 249 247 16 108 115 175 195 174 171 184 191 204 218 213 210 219 253 98 136 149 137 129 148 170 348 20 70 97 90 123 110 305 263 221 235 290 338 337 279 280 277 280 284 275 267 262 257 254 258 256 249
318 308 283 250 247 248 229 233 255 277 307 326 341 350 357 1 360 3 27 30 12 16 23 31 24 10 4 1 4 11 15 28 40 45 37 32 47 70 85 98 103 99 110 122 120 156 181 179 183 178 177 184 185 151 115 111 107 98 100 161 160 171 354 41 23 68 112 84 341 255 205 204 312 14 28 356 325 311 308 315 291 264 256 252 248 248 250 247
316 305 285 249 234 241 229 225 240 262 293 318 337 347 358 7 3 7 51 10 11 20 28 29 19 7 1 355 355 359 357 11 26 28 21 23 36 49 65 79 86 89 86 79 89 123 145 135 125 114 128 149 147 136 130 114 92 83 92 129 136 146 222 348 336 75 124 84 8 223 198 203 347 21 21 8 352 335 306 303 313 259 242 236 236 236 237 241
313 302 286 253 223 230 228 223 232 249 277 306 332 346 355 8 12 16 42 2 11 15 17 21 10 359 354 352 357 353 345 357 7 10 8 4 12 25 38 50 61 66 68 76 82 99 116 110 101 104 120 134 129 129 136 119 99 84 83 111 122 133 140 32 348 28 85 59 5 60 181 199 232 8 13 10 0 351 327 263 235 245 214 195 204 212 217 225
310 302 289 256 216 223 226 222 227 237 262 296 326 345 352 7 19 18 21 11 4 5 10 20 6 358 360 6 14 357 343 5 13 20 24 12 13 24 22 19 28 30 35 48 37 48 111 105 86 94 111 139 146 141 119 61 39 103 83 127 124 87 64 28 352 349 60 29 3 129 162 192 250 2 15 15 8 3 355 246 199 185 168 153 152 164 181 202
309 302 292 256 213 217 222 217 221 230 252 283 317 342 353 16 24 10 20 16 2 3 14 32 14 5 15 25 28 21 14 18 16 21 26 17 13 18 15 14 21 18 13 21 23 36 95 110 172 216 253 208 198 188 131 19 334 228 221 169 138 64 56 17 322 321 14 36 62 135 151 177 355 24 20 21 18 16 16 342 232 160 148 135 124 130 142 146
309 299 286 249 211 210 213 211 217 227 242 266 308 340 354 18 9 1 13 13 12 17 20 33 26 11 22 43 43 40 38 20 13 16 18 15 15 16 11 3 10 18 12 19 37 57 77 78 125 215 269 251 221 212 227 337 342 210 212 215 241 271 304 264 241 129 131 75 92 129 140 358 28 33 25 30 27 25 29 25 37 133 146 136 123 120 117 110
308 296 280 249 208 203 211 209 214 223 233 250 293 338 360 6 352 356 12 16 22 23 14 20 29 19 31 52 45 42 47 31 23 38 46 37 25 20 18 10 8 17 8 16 55 68 76 72 60 55 11 320 186 184 216 281 321 188 201 232 258 278 299 86 92 119 140 107 99 141 335 21 60 50 42 42 37 37 42 44 64 95 113 117 112 109 106 99
310 299 284 254 206 201 212 212 212 217 224 238 274 333 10 12 1 357 359 6 12 14 9 9 27 42 62 58 37 40 53 48 55 69 63 40 28 24 29 32 33 51 50 54 71 71 85 91 74 53 46 73 95 100 237 265 293 171 186 241 314 326 272 152 89 104 122 95 80 344 16 58 85 62 50 49 47 48 49 49 61 72 76 82 89 95 97 92
318 304 282 244 212 207 213 216 214 215 220 227 254 321 3 7 4 348 332 342 357 5 6 360 66 83 80 69 54 73 87 76 84 77 46 34 35 31 37 50 61 84 85 72 72 90 105 109 111 84 66 93 100 316 266 248 248 193 216 333 336 300 243 201 124 87 82 70 60 11 42 51 44 39 46 46 45 46 47 50 52 53 58 61 65 76 88 92
318 296 271 235 217 215 218 218 212 212 216 222 241 292 342 352 357 338 318 328 347 358 6 17 98 97 89 90 86 89 94 102 119 83 47 60 52 35 35 43 58 92 100 76 81 104 104 94 107 125 109 114 150 229 231 226 233 248 295 324 279 259 246 181 134 80 82 72 343 8 59 48 22 21 42 41 38 41 46 53 55 51 48 45 46 52 62 79
301 283 270 236 219 215 215 214 208 210 216 223 238 267 324 347 355 336 318 327 345 359 10 27 92 109 107 106 96 92 107 117 127 109 63 80 60 35 30 29 43 85 110 105 100 103 103 96 121 148 150 190 213 227 223 217 224 238 264 277 264 287 324 101 93 87 111 141 130 21 61 42 14 19 41 42 39 45 54 62 63 60 54 48 51 57 61 72
282 279 264 222 194 178 187 199 202 211 220 229 242 259 300 329 3 339 318 322 347 4 7 12 101 139 137 130 111 102 117 133 129 122 96 89 61 37 32 38 61 75 79 98 104 67 71 110 134 162 175 191 216 245 285 253 240 240 258 266 259 270 40 91 77 66 84 135 151 98 65 25 16 26 48 49 45 52 64 72 71 68 62 54 57 66 77 92
267 263 233 211 187 168 177 192 197 212 225 236 243 242 266 290 183 148 322 330 349 4 3 6 86 146 147 147 135 116 103 11 129 133 108 84 59 48 43 49 66 63 57 73 80 52 29 55 122 161 176 183 224 283 20 39 248 238 273 277 256 255 240 107 73 59 74 105 142 131 139 18 24 40 60 58 56 63 69 73 74 73 66 58 58 62 72 90
261 237 219 228 206 177 184 195 201 212 221 234 237 226 231 256 220 205 285 331 337 343 346 339 338 352 120 130 117 107 354 307 288 173 123 75 48 48 48 54 56 46 50 60 56 40 17 22 112 158 175 195 246 154 116 100 109 161 266 268 211 239 249 128 113 110 95 99 121 121 127 64 38 51 72 69 66 69 69 67 70 71 66 61 59 59 66 76
252 235 232 246 234 193 194 200 208 217 224 233 231 220 230 255 250 244 263 287 294 303 311 294 290 309 314 313 334 331 309 286 270 219 173 354 351 11 23 45 43 34 58 62 34 25 14 37 105 128 132 127 126 143 139 104 96 106 36 126 130 106 79 53 78 141 115 110 132 116 102 106 75 74 86 82 72 70 75 75 69 65 61 57 52 56 66 71
250 242 239 241 239 219 206 206 215 223 231 234 223 209 237 268 273 265 270 278 276 285 297 289 279 266 272 296 307 313 314 298 275 240 219 248 270 301 331 339 17 30 107 82 34 45 357 65 123 120 102 75 90 131 152 138 146 226 353 103 115 99 82 30 46 157 126 111 138 123 123 146 107 95 99 96 85 81 89 85 66 54 49 45 42 49 62 75
249 245 237 233 230 222 217 220 228 235 242 239 224 203 217 256 250 247 298 300 282 281 289 290 287 267 261 278 288 296 300 294 288 268 240 239 242 240 265 260 247 263 167 111 65 61 3 32 143 145 149 147 128 143 152 138 170 215 241 213 134 137 124 343 210 171 131 118 128 120 124 135 122 119 116 104 103 97 96 84 60 47 38 28 23 25 32 55
246 238 234 234 233 231 236 239 240 244 250 247 233 204 192 216 223 240 293 299 283 285 292 288 283 273 272 278 275 275 279 277 279 271 244 234 234 231 235 237 235 260 255 102 57 33 63 122 139 178 184 169 150 145 151 155 171 181 179 186 181 183 246 276 219 187 157 143 127 116 118 119 122 128 110 115 118 96 82 69 46 32 14 5 7 6 5 10
246 236 233 236 237 239 245 248 249 253 254 248 239 216 203 212 229 254 275 281 274 277 283 284 279 280 285 285 275 266 262 260 259 257 249 243 236 231 228 227 227 231 203 159 39 337 183 152 133 144 160 153 150 158 163 171 178 169 164 184 227 232 224 235 234 192 172 164 136 126 126 116 116 117 119 137 138 90 75 46 8 357 352 354 358 357 354 354
246 239 235 236 237 238 243 246 249 254 251 247 246 241 235 236 247 263 267 267 269 268 272 282 297 305 304 294 279 260 243 244 248 246 249 247 240 235 231 230 233 241 250 244 144 223 210 179 159 152 152 148 164 179 180 184 188 191 202 211 229 249 234 244 231 180 173 180 167 158 149 133 130 124 126 139 131 108 88 9 348 346 344 345 350 352 351 353
251 246 240 237 237 238 242 245 246 247 245 251 260 263 258 254 263 276 272 268 270 269 273 287 302 310 306 292 271 244 220 218 219 212 231 243 236 237 240 237 240 248 256 275 28 194 200 177 164 166 169 164 178 187 190 206 213 210 210 206 212 239 244 238 199 173 174 173 155 154 158 157 151 140 137 137 121 103 39 358 347 338 332 335 345 353 354 353
258 250 244 241 241 242 243 243 245 248 254 260 268 272 271 265 267 272 272 270 272 274 277 285 294 299 291 258 241 226 205 199 195 186 190 200 193 213 235 235 238 246 246 246 233 204 200 174 160 162 163 159 175 190 192 212 228 213 194 187 183 190 200 193 172 161 160 157 154 157 165 165 161 168 174 166 143 325 335 334 323 317 319 327 341 355 357 352
266 257 251 246 243 243 244 244 246 253 262 269 272 274 271 268 268 268 267 265 267 272 278 280 277 265 230 217 225 224 208 202 200 193 189 189 177 184 218 223 223 230 222 216 218 218 213 189 173 172 166 154 163 182 186 198 216 204 176 166 162 165 173 176 171 160 155 160 163 166 168 165 170 190 210 239 268 292 311 311 307 306 308 314 326 342 351 347
272 264 257 249 244 244 246 246 248 255 264 270 273 272 269 268 267 264 263 260 256 259 269 272 258 226 205 209 213 213 208 206 204 198 196 197 193 201 223 222 209 205 191 189 197 196 207 201 191 187 176 164 165 172 171 173 189 182 156 149 141 135 137 148 166 168 166 177 181 180 177 177 187 209 229 249 264 284 296 297 298 296 293 297 308 324 335 338
Height
3121 3120 3118 3117 3115 3113 3111 3108 3106 3103 3101 3098 3095 3092 3090 3088 3085 3083 3080 3078 3075 3072 3070 3067 3065 3063 3061 3058 3056 3054 3052 3050 3049 3047 3045 3045 3044 3043 3043 3043 3043 3044 3045 3046 3048 3050 3052 3054 3057 3058 3060 3062 3064 3068 3071 3075 3079 3081 3083 3085 3086 3088 3092 3095 3098 3100 3102 3104 3105 3107 3110 3112 3114 3116 3118 3121 3122 3124 3126 3127 3128 3129 3130 3131 3132 3132 3133 3134
3121 3119 3118 3116 3115 3113 3110 3108 3106 3103 3100 3097 3094 3092 3090 3088 3085 3083 3080 3077 3075 3072 3069 3066 3064 3062 3060 3057 3055 3052 3050 3049 3047 3045 3044 3043 3042 3042 3041 3041 3042 3043 3044 3045 3047 3048 3051 3053 3055 3057 3059 3061 3064 3067 3071 3075 3078 3080 3082 3084 3085 3088 3093 3096 3098 3100 3102 3103 3105 3107 3109 3112 3113 3115 3117 3119 3121 3123 3124 3126 3128 3129 3130 3130 3131 3132 3132 3133
3120 3119 3117 3116 3114 3112 3110 3108 3105 3103 3100 3097 3094 3092 3090 3087 3085 3082 3080 3077 3074 3071 3068 3066 3063 3061 3058 3056 3053 3051 3049 3047 3045 3044 3043 3042 3041 3041 3041 3040 3041 3042 3043 3044 3045 3047 3049 3052 3054 3056 3059 3061 3063 3067 3071 3074 3077 3080 3082 3083 3086 3089 3093 3095 3097 3100 3101 3102 3104 3105 3107 3109 3112 3114 3116 3118 3120 3122 3124 3125 3127 3128 3129 3129 3130 3131 3131 3132
3119 3118 3117 3116 3114 3112 3110 3107 3105 3103 3100 3097 3094 3092 3089 3087 3085 3082 3079 3077 3074 3071 3068 3066 3063 3061 3058 3055 3052 3050 3048 3046 3044 3043 3042 3041 3040 3040 3040 3040 3041 3041 3042 3043 3044 3046 3048 3051 3053 3056 3058 3061 3064 3067 3071 3074 3077 3080 3081 3083 3086 3090 3092 3095 3096 3098 3100 3101 3103 3104 3105 3106 3110 3113 3116 3117 3119 3121 3123 3125 3127 3127 3128 3129 3129 3129 3130 3131
3119 3118 3117 3115 3114 3112 3109 3107 3105 3102 3099 3096 3094 3091 3089 3087 3084 3082 3079 3076 3073 3071 3068 3066 3063 3061 3057 3055 3053 3050 3047 3045 3043 3042 3041 3040 3039 3039 3039 3039 3040 3040 3041 3042 3044 3046 3048 3050 3053 3055 3058 3061 3063 3067 3071 3074 3077 3080 3081 3084 3087 3089 3091 3093 3095 3097 3099 3101 3103 3105 3106 3107 3109 3112 3115 3117 3119 3121 3123 3124 3125 3126 3127 3128 3128 3128 3129 3130
3118 3117 3116 3115 3113 3111 3109 3107 3105 3102 3099 3096 3094 3091 3089 3086 3084 3081 3079 3076 3073 3071 3068 3066 3064 3061 3058 3055 3053 3050 3047 3045 3044 3042 3041 3040 3039 3039 3039 3040 3040 3040 3041 3042 3044 3046 3048 3050 3052 3054 3057 3061 3064 3067 3071 3075 3078 3080 3082 3085 3086 3088 3090 3093 3094 3097 3099 3101 3103 3105 3107 3109 3110 3112 3114 3116 3119 3121 3122 3123 3124 3125 3126 3127 3127 3128 3128 3129
3117 3116 3116 3114 3113 3111 3109 3107 3105 3102 3099 3096 3094 3091 3089 3086 3084 3081 3079 3076 3074 3071 3069 3067 3065 3062 3059 3056 3054 3051 3049 3046 3044 3043 3041 3040 3040 3040 3040 3040 3041 3041 3042 3043 3045 3046 3048 3050 3053 3055 3058 3061 3065 3069 3072 3076 3078 3080 3082 3085 3086 3088 3091 3093 3095 3097 3098 3100 3102 3104 3106 3108 3110 3112 3114 3116 3117 3119 3120 3122 3123 3124 3125 3126 3126 3127 3128 3128
3116 3116 3115 3114 3112 3111 3109 3107 3105 3102 3099 3096 3094 3091 3089 3087 3084 3081 3079 3076 3074 3072 3070 3068 3066 3063 3060 3058 3055 3052 3049 3047 3045 3044 3043 3042 3041 3041 3041 3041 3042 3042 3043 3044 3045 3047 3049 3051 3054 3057 3060 3062 3066 3070 3073 3075 3078 3080 3082 3084 3086 3088 3091 3094 3095 3097 3098 3100 3101 3103 3105 3108 3111 3113 3114 3115 3116 3118 3119 3121 3123 3124 3125 3125 3126 3126 3127 3127
3115 3115 3114 3113 3112 3110 3108 3107 3104 3102 3099 3097 3094 3092 3089 3087 3084 3082 3079 3077 3075 3072 3071 3069 3067 3065 3062 3060 3057 3054 3051 3049 3048 3046 3045 3044 3043 3042 3042 3042 3043 3043 3044 3045 3046 3048 3051 3053 3055 3058 3062 3065 3068 3071 3073 3076 3078 3080 3082 3084 3086 3089 3091 3093 3094 3095 3096 3097 3099 3102 3104 3107 3109 3111 3113 3114 3115 3117 3119 3121 3122 3123 3124 3125 3125 3125 3126 3126
3114 3114 3114 3113 3112 3110 3108 3106 3104 3102 3100 3097 3095 3092 3090 3087 3085 3082 3080 3077 3075 3073 3072 3070 3069 3066 3064 3062 3059 3057 3054 3052 3050 3050 3049 3047 3046 3045 3044 3044 3044 3045 3046 3047 3048 3050 3053 3056 3057 3059 3063 3067 3070 3072 3074 3076 3079 3080 3082 3084 3086 3089 3091 3092 3093 3094 3093 3094 3097 3100 3102 3104 3106 3108 3111 3113 3115 3117 3119 3120 3121 3122 3123 3124 3124 3125 3125 3126
3113 3113 3113 3112 3111 3110 3108 3106 3104 3102 3100 3098 3095 3093 3090 3088 3085 3083 3081 3079 3076 3075 3073 3072 3071 3069 3067 3064 3061 3060 3058 3056 3054 3054 3052 3050 3049 3049 3048 3047 3047 3048 3049 3049 3051 3053 3056 3058 3059 3061 3063 3067 3071 3072 3074 3077 3079 3080 3082 3084 3086 3088 3090 3091 3091 3092 3093 3095 3096 3097 3098 3101 3104 3107 3110 3113 3115 3117 3118 3119 3120 3121 3122 3123 3124 3124 3125 3125
3113 3112 3112 3112 3111 3109 3108 3106 3104 3102 3100 3098 3096 3093 3091 3088 3086 3084 3082 3080 3078 3076 3074 3073 3072 3071 3069 3066 3064 3062 3061 3059 3057 3055 3054 3052 3052 3052 3051 3050 3049 3050 3051 3052 3054 3056 3058 3060 3062 3063 3066 3069 3071 3072 3074 3076 3078 3080 3082 3084 3085 3087 3089 3090 3091 3092 3093 3094 3094 3094 3097 3101 3105 3109 3112 3114 3116 3117 3118 3118 3119 3120 3121 3123 3123 3124 3124 3124
3112 3112 3111 3111 3110 3109 3108 3106 3104 3103 3101 3099 3097 3094 3092 3089 3087 3085 3083 3081 3079 3077 3076 3075 3074 3072 3071 3068 3066 3065 3063 3061 3059 3056 3055 3056 3055 3053 3053 3053 3052 3052 3053 3055 3057 3058 3060 3062 3063 3065 3068 3070 3069 3070 3072 3074 3077 3080 3082 3083 3084 3086 3087 3088 3089 3090 3091 3093 3094 3097 3102 3106 3108 3110 3112 3115 3116 3116 3117 3118 3118 3119 3121 3122 3123 3123 3123 3123
3111 3111 3111 3110 3110 3109 3107 3106 3104 3103 3101 3099 3097 3095 3093 3090 3088 3086 3084 3082 3080 3079 3077 3076 3075 3074 3072 3071 3069 3068 3066 3065 3062 3059 3059 3059 3058 3056 3055 3055 3056 3056 3057 3058 3059 3060 3062 3064 3065 3064 3067 3069 3068 3070 3072 3073 3075 3078 3080 3082 3082 3084 3086 3087 3088 3089 3091 3094 3097 3101 3105 3107 3109 3111 3112 3113 3114 3115 3116 3117 3118 3119 3120 3121 3122 3122 3122 3122
3110 3110 3110 3110 3109 3108 3107 3106 3104 3103 3101 3099 3097 3095 3093 3091 3089 3087 3085 3083 3081 3080 3079 3078 3076 3075 3074 3073 3071 3070 3068 3067 3066 3064 3062 3061 3061 3060 3058 3058 3059 3060 3061 3061 3062 3063 3063 3065 3066 3065 3066 3069 3070 3072 3074 3074 3073 3076 3079 3080 3082 3084 3087 3088 3089 3092 3095 3098 3100 3104 3107 3108 3110 3111 3111 3112 3113 3114 3115 3116 3117 3118 3119 3120 3121 3121 3121 3121
3109 3109 3109 3109 3109 3108 3107 3105 3104 3102 3101 3099 3098 3096 3094 3092 3090 3088 3087 3085 3083 3081 3080 3079 3078 3077 3076 3075 3073 3072 3071 3070 3069 3068 3066 3064 3064 3063 3062 3061 3062 3063 3063 3064 3064 3064 3064 3066 3066 3066 3068 3071 3073 3075 3077 3076 3074 3076 3078 3081 3084 3087 3090 3090 3092 3096 3099 3099 3101 3105 3107 3108 3109 3111 3111 3112 3113 3114 3114 3115 3116 3117 3118 3119 3119 3120 3120 3121
3108 3108 3108 3108 3108 3107 3106 3105 3104 3102 3101 3099 3098 3096 3095 3093 3091 3090 3088 3086 3085 3083 3082 3081 3079 3078 3077 3076 3075 3074 3074 3073 3071 3070 3069 3068 3067 3066 3065 3064 3065 3066 3066 3066 3066 3066 3067 3068 3068 3068 3071 3074 3076 3079 3079 3077 3075 3076 3079 3082 3086 3090 3092 3092 3094 3098 3100 3100 3103 3106 3107 3107 3108 3110 3111 3112 3112 3113 3114 3114 3115 3116 3117 3117 3118 3119 3119 3120
3107 3107 3107 3107 3107 3107 3106 3105 3104 3102 3101 3099 3097 3096 3095 3093 3092 3090 3089 3087 3086 3085 3083 3082 3081 3080 3079 3077 3077 3076 3075 3074 3073 3072 3071 3071 3070 3069 3068 3068 3068 3068 3068 3068 3068 3069 3070 3070 3070 3071 3074 3074 3076 3079 3077 3074 3074 3077 3079 3083 3088 3092 3094 3093 3095 3098 3101 3103 3105 3105 3105 3106 3108 3110 3111 3112 3112 3112 3113 3113 3114 3115 3116 3116 3116 3117 3118 3119
3107 3106 3106 3106 3106 3106 3106 3105 3104 3102 3101 3099 3097 3096 3095 3093 3092 3091 3089 3088 3087 3086 3084 3084 3082 3081 3080 3079 3078 3077 3076 3075 3075 3073 3073 3072 3071 3071 3070 3070 3071 3071 3071 3071 3071 3071 3071 3072 3072 3074 3075 3075 3076 3077 3075 3074 3076 3078 3081 3085 3089 3093 3094 3093 3095 3098 3101 3104 3105 3104 3104 3106 3109 3111 3111 3111 3111 3112 3112 3112 3113 3114 3114 3115 3115 3116 3117 3118
3106 3106 3105 3105 3105 3106 3105 3104 3103 3102 3100 3099 3097 3095 3094 3093 3092 3091 3090 3088 3087 3086 3085 3085 3084 3083 3082 3081 3079 3078 3077 3077 3076 3075 3074 3074 3073 3072 3072 3072 3073 3073 3073 3073 3072 3072 3072 3072 3074 3074 3076 3077 3077 3077 3076 3077 3079 3081 3084 3088 3091 3094 3094 3093 3095 3097 3101 3103 3104 3104 3104 3105 3109 3111 3111 3111 3111 3111 3111 3112 3112 3113 3113 3114 3114 3115 3116 3117
3105 3105 3105 3104 3105 3105 3105 3104 3103 3102 3100 3099 3097 3095 3093 3092 3091 3090 3089 3088 3087 3086 3085 3085 3084 3083 3082 3081 3081 3080 3079 3078 3077 3076 3075 3075 3074 3074 3074 3074 3075 3075 3075 3075 3074 3074 3073 3072 3074 3075 3076 3077 3078 3078 3079 3080 3083 3084 3087 3090 3092 3093 3094 3094 3095 3097 3099 3101 3103 3104 3105 3107 3109 3110 3110 3110 3110 3110 3111 3111 3111 3111 3112 3112 3113 3114 3115 3116
3104 3104 3104 3104 3104 3104 3104 3104 3103 3102 3100 3099 3097 3095 3093 3092 3091 3090 3089 3088 3087 3086 3086 3085 3084 3084 3083 3082 3081 3080 3080 3079 3078 3077 3077 3076 3076 3076 3076 3076 3076 3077 3077 3077 3076 3076 3075 3073 3075 3076 3077 3078 3079 3080 3081 3083 3085 3086 3088 3091 3092 3093 3095 3095 3096 3098 3099 3101 3103 3105 3106 3107 3108 3108 3108 3108 3109 3109 3109 3109 3110 3110 3111 3111 3112 3113 3114 3115
3104 3103 3103 3103 3103 3103 3103 3103 3103 3102 3101 3099 3097 3095 3093 3092 3091 3090 3089 3088 3088 3087 3086 3085 3085 3084 3083 3083 3082 3081 3081 3080 3079 3079 3078 3078 3078 3078 3078 3078 3078 3078 3079 3079 3078 3077 3077 3076 3077 3078 3079 3079 3080 3082 3083 3084 3086 3088 3090 3092 3095 3095 3096 3096 3097 3099 3100 3102 3104 3105 3105 3106 3106 3106 3106 3106 3107 3107 3107 3108 3108 3109 3110 3110 3111 3112 3113 3114
3103 3102 3102 3102 3102 3102 3103 3103 3102 3102 3101 3099 3097 3096 3094 3093 3092 3091 3089 3089 3088 3087 3086 3086 3085 3085 3084 3083 3083 3082 3081 3081 3080 3080 3079 3079 3080 3080 3080 3080 3080 3080 3081 3081 3080 3080 3079 3079 3079 3080 3081 3081 3082 3084 3085 3084 3087 3090 3092 3094 3096 3096 3096 3097 3098 3099 3100 3102 3103 3103 3103 3103 3103 3103 3103 3104 3105 3105 3106 3106 3107 3107 3109 3109 3109 3110 3111 3112
3102 3102 3101 3101 3101 3101 3102 3102 3102 3102 3101 3099 3098 3096 3095 3094 3092 3091 3090 3089 3089 3088 3087 3086 3086 3085 3084 3084 3083 3083 3082 3081 3081 3080 3080 3080 3080 3080 3081 3081 3081 3081 3082 3082 3082 3082 3082 3082 3081 3081 3083 3084 3085 3086 3087 3087 3089 3091 3093 3094 3095 3095 3095 3096 3097 3098 3099 3100 3100 3101 3101 3100 3100 3101 3101 3102 3102 3103 3104 3104 3105 3106 3107 3107 3108 3109 3110 3111
3101 3101 3101 3100 3100 3100 3101 3101 3101 3101 3100 3099 3098 3097 3096 3094 3093 3092 3091 3090 3090 3089 3088 3087 3087 3086 3085 3084 3084 3083 3083 3082 3081 3081 3081 3080 3080 3080 3081 3081 3082 3082 3082 3082 3083 3083 3083 3084 3084 3084 3085 3086 3087 3088 3089 3089 3090 3092 3093 3094 3094 3094 3094 3095 3096 3097 3097 3098 3099 3099 3100 3099 3098 3099 3099 3100 3100 3101 3102 3102 3103 3104 3105 3106 3107 3108 3109 3110
3100 3100 3100 3100 3100 3100 3100 3101 3101 3101 3100 3099 3098 3097 3096 3095 3093 3092 3091 3091 3090 3089 3089 3088 3088 3087 3086 3085 3085 3084 3083 3083 3082 3081 3081 3081 3081 3080 3081 3081 3082 3081 3082 3082 3083 3084 3084 3085 3086 3087 3087 3088 3089 3089 3089 3090 3090 3091 3092 3092 3093 3093 3093 3094 3095 3096 3096 3097 3098 3098 3099 3099 3098 3098 3098 3099 3099 3099 3100 3100 3101 3102 3103 3104 3105 3106 3108 3109
3099 3099 3099 3099 3099 3099 3099 3100 3100 3100 3100 3099 3098 3097 3096 3095 3094 3092 3092 3092 3091 3090 3089 3089 3088 3088 3087 3086 3086 3085 3085 3084 3083 3082 3081 3081 3081 3081 3081 3081 3081 3081 3082 3082 3083 3084 3085 3086 3086 3087 3088 3089 3090 3090 3090 3090 3090 3091 3091 3092 3093 3093 3094 3095 3095 3095 3095 3096 3097 3098 3099 3100 3098 3097 3098 3098 3098 3098 3098 3098 3099 3100 3101 3102 3103 3105 3107 3108
3098 3098 3098 3098 3098 3098 3099 3099 3100 3100 3100 3099 3098 3098 3096 3095 3094 3093 3092 3092 3091 3090 3090 3090 3089 3089 3088 3087 3087 3086 3086 3085 3085 3083 3082 3082 3082 3082 3082 3082 3082 3082 3082 3083 3083 3084 3085 3086 3087 3087 3088 3089 3090 3091 3091 3091 3090 3091 3091 3092 3092 3093 3094 3095 3095 3095 3095 3096 3097 3097 3098 3100 3099 3097 3097 3097 3097 3097 3097 3097 3097 3098 3099 3100 3102 3104 3105 3107
3098 3097 3097 3097 3097 3097 3098 3098 3099 3099 3099 3099 3098 3097 3096 3095 3094 3093 3093 3093 3092 3091 3091 3090 3090 3089 3088 3087 3087 3087 3086 3086 3086 3084 3084 3083 3083 3083 3083 3084 3084 3084 3084 3084 3084 3085 3086 3086 3087 3087 3088 3088 3089 3090 3090 3091 3091 3091 3091 3091 3092 3094 3095 3096 3095 3095 3095 3096 3097 3097 3098 3099 3099 3097 3097 3097 3096 3096 3096 3096 3096 3096 3097 3098 3100 3102 3104 3105
3097 3096 3096 3096 3096 3097 3097 3098 3098 3099 3099 3099 3098 3097 3096 3095 3094 3093 3094 3093 3092 3092 3091 3091 3090 3090 3089 3088 3087 3087 3087 3086 3086 3086 3085 3084 3083 3083 3083 3084 3084 3084 3084 3085 3085 3086 3087 3087 3087 3087 3088 3089 3090 3090 3090 3091 3091 3092 3092 3091 3093 3095 3096 3096 3095 3095 3095 3097 3097 3097 3098 3099 3099 3098 3097 3097 3096 3095 3094 3095 3095 3095 3096 3097 3099 3101 3103 3105
3096 3095 3095 3095 3096 3096 3096 3097 3098 3098 3098 3098 3098 3097 3096 3095 3095 3094 3094 3093 3093 3092 3092 3091 3091 3090 3089 3089 3088 3088 3088 3087 3087 3086 3086 3085 3084 3083 3083 3083 3084 3084 3084 3085 3085 3086 3087 3087 3087 3088 3088 3089 3090 3091 3091 3092 3092 3092 3093 3093 3094 3096 3097 3097 3097 3096 3097 3097 3097 3097 3098 3099 3099 3098 3098 3097 3096 3095 3094 3094 3094 3095 3096 3097 3098 3101 3102 3104
3095 3094 3094 3094 3095 3095 3096 3096 3097 3097 3098 3098 3098 3097 3097 3096 3096 3095 3095 3094 3093 3093 3092 3091 3091 3091 3090 3090 3089 3089 3089 3088 3088 3087 3086 3086 3085 3085 3084 3084 3084 3084 3084 3085 3085 3085 3086 3087 3088 3088 3088 3089 3090 3091 3092 3093 3092 3093 3093 3094 3095 3096 3098 3099 3099 3098 3098 3098 3097 3097 3099 3099 3099 3099 3099 3098 3097 3095 3094 3094 3094 3095 3096 3097 3098 3100 3102 3103
3094 3094 3093 3094 3094 3095 3095 3096 3096 3097 3097 3098 3098 3097 3097 3096 3096 3096 3095 3094 3093 3093 3092 3092 3091 3091 3091 3090 3090 3090 3090 3089 3089 3088 3087 3087 3087 3086 3086 3085 3085 3085 3085 3085 3085 3085 3086 3086 3088 3088 3088 3088 3089 3091 3092 3093 3093 3093 3094 3095 3095 3095 3096 3097 3097 3097 3098 3098 3098 3099 3100 3100 3100 3100 3100 3099 3098 3096 3096 3095 3095 3095 3096 3097 3098 3100 3102 3103
3094 3093 3093 3093 3094 3095 3095 3095 3096 3096 3097 3097 3098 3097 3097 3096 3096 3096 3095 3094 3094 3093 3093 3092 3092 3092 3091 3091 3091 3091 3090 3090 3090 3089 3089 3088 3088 3087 3087 3086 3086 3086 3086 3086 3086 3086 3086 3087 3088 3089 3088 3089 3090 3091 3092 3093 3093 3093 3094 3095 3095 3094 3095 3095 3096 3096 3097 3099 3100 3100 3100 3101 3101 3101 3100 3099 3099 3098 3098 3097 3097 3098 3098 3099 3099 3100 3101 3103
3093 3093 3093 3093 3094 3094 3094 3094 3095 3095 3096 3097 3097 3097 3097 3096 3096 3096 3095 3094 3094 3093 3093 3092 3092 3092 3091 3091 3091 3091 3091 3091 3090 3090 3090 3089 3089 3088 3088 3087 3086 3086 3086 3087 3087 3088 3088 3089 3089 3089 3089 3089 3091 3092 3093 3094 3094 3093 3094 3095 3094 3094 3095 3095 3096 3097 3098 3099 3101 3102 3101 3101 3101 3101 3101 3100 3100 3099 3099 3099 3099 3100 3101 3101 3101 3101 3102 3103
3093 3092 3092 3093 3093 3093 3094 3094 3094 3095 3096 3097 3097 3097 3096 3096 3096 3096 3095 3094 3094 3093 3093 3092 3092 3092 3092 3092 3091 3092 3092 3091 3091 3090 3090 3090 3090 3089 3088 3088 3087 3087 3087 3088 3089 3089 3089 3090 3090 3090 3090 3090 3091 3092 3093 3094 3094 3094 3094 3094 3094 3095 3095 3095 3096 3098 3099 3101 3102 3102 3101 3102 3102 3102 3102 3101 3101 3100 3100 3100 3101 3101 3102 3102 3102 3103 3103 3104
3092 3092 3092 3092 3093 3093 3093 3094 3094 3095 3095 3096 3096 3096 3096 3096 3096 3095 3095 3094 3094 3093 3092 3092 3092 3092 3092 3092 3092 3092 3092 3092 3091 3091 3091 3091 3090 3089 3089 3088 3088 3088 3088 3088 3089 3090 3089 3090 3091 3090 3090 3091 3093 3093 3094 3094 3094 3094 3094 3095 3095 3095 3095 3095 3096 3097 3099 3103 3104 3102 3102 3103 3103 3103 3103 3102 3102 3101 3101 3101 3101 3102 3102 3103 3103 3103 3104 3104
3092 3092 3092 3092 3092 3093 3093 3093 3094 3094 3095 3096 3096 3096 3096 3095 3095 3095 3094 3094 3093 3093 3093 3092 3092 3093 3092 3092 3092 3092 3092 3092 3092 3091 3091 3091 3091 3090 3089 3088 3088 3088 3088 3088 3089 3090 3090 3091 3091 3091 3091 3092 3093 3093 3093 3093 3093 3094 3094 3095 3095 3095 3095 3095 3095 3096 3098 3102 3104 3103 3103 3104 3104 3104 3104 3103 3103 3102 3102 3102 3102 3102 3103 3103 3103 3103 3103 3104
3092 3092 3092 3092 3092 3092 3093 3093 3094 3094 3095 3095 3095 3096 3095 3095 3095 3095 3094 3094 3093 3093 3093 3093 3093 3093 3093 3093 3093 3092 3092 3092 3092 3092 3091 3091 3091 3090 3089 3089 3088 3088 3088 3088 3089 3090 3090 3091 3091 3092 3092 3093 3092 3092 3092 3092 3093 3094 3094 3095 3095 3095 3095 3095 3096 3096 3097 3100 3102 3103 3105 3105 3105 3105 3105 3104 3104 3103 3103 3103 3102 3102 3102 3103 3103 3103 3104 3104
3092 3092 3092 3092 3091 3092 3092 3093 3093 3094 3094 3094 3095 3095 3095 3095 3094 3094 3094 3094 3093 3093 3093 3093 3093 3093 3093 3093 3093 3092 3092 3092 3092 3092 3092 3091 3091 3090 3090 3090 3089 3089 3089 3089 3089 3090 3090 3091 3091 3092 3092 3093 3093 3092 3092 3093 3093 3094 3094 3094 3095 3095 3096 3095 3096 3098 3097 3098 3100 3102 3105 3106 3105 3105 3105 3105 3104 3104 3103 3103 3103 3103 3103 3103 3104 3104 3104 3104
3091 3092 3092 3092 3092 3092 3092 3092 3093 3093 3093 3094 3094 3094 3094 3094 3094 3094 3094 3093 3093 3093 3093 3093 3093 3093 3093 3093 3093 3092 3092 3092 3092 3092 3092 3092 3091 3091 3091 3091 3090 3090 3090 3090 3090 3090 3091 3091 3092 3092 3093 3093 3093 3092 3092 3093 3093 3094 3094 3094 3094 3095 3095 3095 3097 3098 3098 3099 3100 3101 3103 3105 3105 3106 3105 3105 3104 3104 3104 3103 3103 3103 3103 3103 3104 3104 3104 3104
3091 3091 3091 3092 3092 3092 3092 3092 3092 3092 3093 3093 3093 3094 3094 3094 3094 3094 3093 3093 3093 3093 3093 3093 3093 3093 3093 3093 3093 3092 3092 3092 3092 3092 3092 3092 3092 3092 3092 3091 3091 3091 3091 3091 3091 3091 3091 3092 3092 3092 3093 3093 3092 3092 3093 3093 3094 3094 3094 3094 3094 3095 3095 3096 3097 3097 3098 3100 3100 3101 3103 3105 3105 3105 3106 3105 3105 3104 3104 3103 3103 3103 3104 3104 3104 3104 3104 3104
3091 3091 3091 3091 3092 3091 3092 3092 3092 3092 3092 3092 3093 3093 3094 3093 3093 3093 3093 3093 3093 3093 3093 3093 3093 3093 3093 3093 3093 3092 3092 3092 3092 3092 3092 3092 3092 3092 3092 3092 3092 3092 3092 3092 3092 3091 3092 3092 3092 3092 3093 3094 3094 3094 3094 3094 3094 3094 3095 3095 3095 3095 3096 3096 3097 3097 3098 3100 3100 3101 3104 3105 3105 3105 3106 3105 3105 3105 3104 3104 3104 3104 3104 3104 3104 3104 3104 3104
3090 3090 3090 3091 3091 3091 3091 3091 3091 3092 3092 3092 3092 3093 3093 3093 3093 3093 3093 3093 3093 3093 3093 3093 3092 3092 3092 3092 3092 3092 3092 3092 3092 3092 3092 3092 3092 3092 3092 3092 3092 3092 3092 3092 3092 3092 3092 3092 3092 3092 3093 3095 3095 3095 3094 3094 3094 3095 3095 3095 3096 3096 3096 3097 3097 3097 3098 3099 3100 3101 3103 3104 3104 3105 3105 3105 3105 3105 3105 3105 3104 3104 3104 3104 3105 3105 3104 3104
3090 3090 3090 3090 3091 3091 3091 3091 3091 3091 3092 3092 3092 3093 3093 3093 3093 3093 3093 3093 3093 3093 3092 3092 3092 3092 3092 3092 3092 3092 3092 3092 3091 3092 3092 3092 3092 3092 3093 3093 3093 3092 3092 3092 3092 3092 3092 3092 3092 3092 3092 3093 3094 3094 3094 3094 3095 3095 3095 3096 3096 3096 3097 3097 3097 3097 3098 3099 3099 3100 3102 3103 3103 3104 3104 3105 3105 3105 3105 3105 3105 3105 3105 3105 3105 3105 3105 3104
3089 3089 3089 3090 3090 3090 3090 3090 3091 3091 3091 3091 3092 3092 3092 3093 3093 3093 3093 3093 3092 3092 3092 3092 3092 3091 3091 3091 3091 3091 3091 3091 3091 3091 3091 3092 3092 3092 3092 3093 3093 3092 3092 3092 3092 3092 3092 3092 3093 3093 3093 3093 3094 3094 3095 3095 3095 3096 3096 3097 3097 3097 3097 3097 3097 3097 3097 3098 3099 3100 3101 3102 3103 3103 3104 3104 3105 3105 3106 3105 3105 3105 3105 3105 3105 3105 3105 3105
3088 3088 3089 3089 3089 3089 3089 3089 3090 3090 3090 3091 3091 3091 3092 3092 3092 3092 3092 3092 3092 3092 3092 3091 3091 3091 3090 3090 3090 3090 3090 3090 3090 3090 3090 3091 3091 3091 3092 3092 3092 3092 3092 3092 3092 3092 3092 3093 3093 3093 3094 3094 3094 3095 3095 3095 3096 3096 3097 3097 3097 3097 3097 3097 3097 3097 3098 3098 3099 3100 3101 3102 3102 3103 3104 3104 3105 3106 3106 3106 3106 3105 3106 3106 3106 3106 3105 3105
3088 3088 3088 3088 3088 3089 3089 3089 3089 3090 3090 3090 3090 3091 3091 3091 3091 3092 3092 3092 3091 3091 3091 3091 3090 3090 3090 3089 3089 3089 3089 3089 3089 3089 3089 3090 3090 3090 3091 3091 3091 3092 3092 3092 3092 3092 3092 3093 3093 3094 3094 3094 3094 3095 3095 3096 3096 3097 3097 3097 3097 3097 3097 3096 3096 3097 3098 3098 3099 3100 3101 3102 3102 3103 3104 3104 3105 3105 3106 3106 3106 3106 3106 3106 3106 3106 3106 3106
3087 3087 3087 3087 3088 3088 3088 3088 3088 3089 3089 3089 3090 3090 3090 3090 3091 3091 3091 3091 3091 3091 3091 3091 3090 3090 3089 3089 3088 3088 3088 3087 3088 3088 3088 3089 3089 3090 3090 3091 3091 3091 3092 3092 3092 3092 3092 3093 3093 3094 3094 3094 3095 3095 3096 3096 3097 3097 3097 3097 3097 3097 3097 3096 3096 3097 3098 3099 3100 3101 3101 3102 3103 3103 3104 3104 3105 3105 3105 3105 3106 3106 3106 3106 3106 3106 3106 3106
3086 3086 3086 3086 3086 3087 3087 3087 3088 3088 3088 3089 3089 3089 3089 3090 3090 3090 3090 3090 3090 3090 3090 3090 3090 3089 3089 3088 3088 3088 3087 3087 3087 3088 3088 3089 3089 3090 3090 3090 3090 3091 3091 3091 3091 3092 3092 3092 3093 3093 3094 3094 3095 3096 3096 3097 3097 3097 3097 3097 3097 3098 3098 3097 3097 3098 3098 3099 3100 3101 3102 3102 3103 3103 3104 3104 3105 3105 3105 3105 3105 3105 3105 3105 3105 3105 3105 3105
3085 3085 3085 3085 3085 3085 3086 3086 3087 3087 3087 3088 3088 3088 3088 3088 3089 3089 3089 3089 3089 3089 3089 3089 3089 3089 3088 3088 3087 3087 3087 3087 3087 3088 3088 3089 3089 3089 3090 3090 3090 3090 3090 3090 3091 3091 3092 3092 3093 3093 3094 3095 3095 3096 3096 3097 3097 3097 3097 3097 3098 3098 3098 3098 3098 3099 3099 3100 3101 3101 3102 3102 3103 3104 3104 3104 3105 3105 3105 3105 3105 3105 3105 3105 3105 3105 3105 3105